K1FFK-1 Weather Reports


time (UTC)temp
F
wind
direction
speed
knots
gust
knots
rain 1hr
in
rain 24hr
in
rain mn
in
humidity
%
barometer
mb
20260504151134 48 295 3.5 3.5 0.00 0.00 0.00 59 1013.2
20260504150134 48 201 3.5 3.5 0.00 0.00 0.00 59 1013.3
20260504141134 45 309 3.5 3.5 0.00 0.00 0.00 62 1013.2
20260504140134 44 300 4.3 4.3 0.00 0.00 0.00 63 1013.3
20260504130134 41 329 3.5 3.5 0.00 0.00 0.00 66 1013.1
20260504120134 39 285 3.5 3.5 0.00 0.00 0.00 70 1013.3
20260504110134 38 309 4.3 4.3 0.00 0.00 0.00 72 1012.7
20260504100135 37 292 6.1 6.1 0.00 0.00 0.00 72 1012.1
20260504090133 36 227 2.6 2.6 0.00 0.00 0.00 76 1012.0
20260504081133 37 299 4.3 4.3 0.00 0.00 0.00 75 1012.3
20260504080133 37 306 4.3 4.3 0.00 0.00 0.00 76 1012.3
20260504070133 36 330 6.1 6.1 0.00 0.00 0.00 78 1012.0
20260504060134 36 340 7.0 7.0 0.00 0.00 0.00 78 1012.1
20260504050133 35 327 7.0 7.0 0.00 0.00 0.00 75 1012.5
20260504045133 35 336 4.3 4.3 0.00 0.00 0.00 74 1012.6
20260504044133 35 326 6.1 6.1 0.00 0.00 0.00 75 1012.7
20260504043134 35 329 6.1 6.1 0.00 0.00 0.00 75 1012.6
20260504042134 35 329 5.2 5.2 0.00 0.00 0.00 74 1012.6
20260504041134 35 327 5.2 5.2 0.00 0.00 0.00 74 1012.5
20260504040134 35 330 6.1 6.1 0.00 0.00 0.00 74 1012.4
20260504035133 35 341 7.8 7.8 0.00 0.00 0.00 74 1012.3
20260504034134 35 334 7.0 7.0 0.00 0.00 0.00 74 1012.4
20260504033134 35 341 7.8 7.8 0.00 0.00 0.00 74 1012.2
20260504032133 35 336 7.0 7.0 0.00 0.00 0.00 73 1012.2
20260504031134 35 334 7.0 7.0 0.00 0.00 0.00 72 1012.1
20260504030134 35 330 6.1 6.1 0.00 0.00 0.00 71 1012.1
20260504025134 35 334 5.2 5.2 0.00 0.00 0.00 69 1012.2
20260504024134 35 334 6.1 6.1 0.00 0.00 0.00 68 1012.2
20260504023134 35 326 7.0 7.0 0.00 0.00 0.00 67 1012.2
20260504022133 35 326 9.6 9.6 0.00 0.00 0.00 66 1012.1
20260504021133 35 334 7.8 7.8 0.00 0.00 0.00 65 1012.2
20260504020134 35 334 7.0 7.0 0.00 0.00 0.00 64 1012.1
20260504015134 35 337 7.8 7.8 0.00 0.00 0.00 63 1012.1
20260504014133 36 337 6.1 6.1 0.00 0.00 0.00 63 1011.9
20260504013133 35 329 8.7 8.7 0.00 0.00 0.00 62 1011.7
20260504012134 35 322 7.8 7.8 0.00 0.00 0.00 62 1011.7
20260504011133 35 327 7.8 7.8 0.00 0.00 0.00 61 1011.6
20260504010133 36 330 7.8 7.8 0.00 0.00 0.00 59 1011.6
20260504005133 36 327 9.6 9.6 0.00 0.00 0.00 58 1011.2
20260504004133 36 327 10.4 10.4 0.00 0.00 0.00 56 1011.2
20260504003134 36 333 10.4 10.4 0.00 0.00 0.00 55 1011.3
20260504002134 36 327 9.6 9.6 0.00 0.00 0.00 53 1011.0
20260504001133 36 329 9.6 9.6 0.00 0.00 0.00 52 1010.8
20260504000133 36 306 7.8 7.8 0.00 0.00 0.00 52 1010.8
20260503235133 37 327 7.8 7.8 0.00 0.00 0.00 50 1010.8
20260503234133 37 333 7.8 7.8 0.00 0.00 0.00 49 1010.8
20260503233133 37 330 6.1 6.1 0.00 0.00 0.00 48 1010.5
20260503232133 37 323 8.7 8.7 0.00 0.00 0.00 47 1010.8
20260503231134 37 312 7.0 7.0 0.00 0.00 0.00 47 1010.7
20260503230134 37 326 7.8 7.8 0.00 0.00 0.00 47 1010.6
20260503225134 38 323 10.4 10.4 0.00 0.00 0.00 48 1010.7
20260503224133 38 316 8.7 8.7 0.00 0.00 0.00 49 1010.7
20260503223134 38 306 6.1 6.1 0.00 0.00 0.00 50 1010.7
20260503222134 37 316 7.8 7.8 0.00 0.00 0.00 51 1010.6
20260503221133 37 320 7.0 7.0 0.00 0.00 0.00 53 1010.4
20260503220133 37 327 7.0 7.0 0.00 0.00 0.00 53 1010.5
20260503215134 36 316 7.8 7.8 0.00 0.00 0.00 57 1010.7
20260503214134 36 329 9.6 9.6 0.00 0.00 0.00 57 1010.5
20260503213133 36 315 9.6 9.6 0.00 0.00 0.00 56 1010.4
20260503212133 36 334 7.8 7.8 0.00 0.00 0.00 57 1010.4
20260503211133 35 331 7.8 7.8 0.00 0.00 0.00 58 1010.4
20260503210133 35 320 8.7 8.7 0.00 0.00 0.00 60 1010.5
20260503205133 35 330 5.2 5.2 0.00 0.00 0.00 60 1010.5
20260503204134 35 334 7.0 7.0 0.00 0.00 0.00 62 1010.3
20260503203133 35 313 6.1 6.1 0.00 0.00 0.00 62 1010.4
20260503202133 34 326 7.0 7.0 0.00 0.00 0.00 62 1010.4
20260503201133 34 336 8.7 8.7 0.00 0.00 0.00 62 1010.5
20260503200134 34 312 2.6 2.6 0.00 0.00 0.00 63 1010.6
20260503195134 34 343 7.0 7.0 0.00 0.00 0.00 61 1010.5
20260503194133 34 350 7.0 7.0 0.00 0.00 0.00 60 1010.5
20260503193134 33 329 7.8 7.8 0.00 0.00 0.00 61 1010.5
20260503192134 34 337 7.8 7.8 0.00 0.00 0.00 61 1010.6
20260503191134 33 331 5.2 5.2 0.00 0.00 0.00 62 1010.6
20260503190133 33 316 7.8 7.8 0.00 0.00 0.00 62 1010.4
20260503185133 33 320 8.7 8.7 0.00 0.00 0.00 62 1010.3
20260503184133 33 320 5.2 5.2 0.00 0.00 0.00 61 1010.5
20260503183134 33 327 7.0 7.0 0.00 0.00 0.00 62 1010.5
20260503182134 33 331 7.8 7.8 0.00 0.00 0.00 64 1010.5
20260503181133 33 334 8.7 8.7 0.00 0.00 0.00 61 1010.1
20260503180134 33 331 5.2 5.2 0.00 0.00 0.00 62 1010.4
20260503175133 33 327 5.2 5.2 0.00 0.00 0.00 63 1010.3
20260503174133 33 336 8.7 8.7 0.00 0.00 0.00 62 1010.2
20260503173133 33 330 6.1 6.1 0.00 0.00 0.00 62 1010.2
20260503172133 32 331 6.1 6.1 0.00 0.00 0.00 65 1010.2
20260503171134 32 324 7.0 7.0 0.00 0.00 0.00 67 1010.1
20260503170134 31 317 6.1 6.1 0.00 0.00 0.00 69 1010.2
20260503160133 31 310 5.2 5.2 0.00 0.00 0.00 82 1010.3